Vorticity
11 7 14 17 17 21 16 15 11 6 9 16 5 5 7 21 11 9 11 7 -2 7 7 7 7 6 6 6 7 9 9 8 10 12 11 13 12 9 6 13 11 20 1 5 15 5 11 3 6 8 7 9 9 9
6 11 13 15 21 18 19 8 16 11 1 10 19 3 11 16 8 10 10 3 0 9 5 8 7 6 4 6 8 10 7 9 9 13 12 12 21 6 10 7 14 12 19 10 6 26 14 12 9 7 7 5 7 8
8 15 8 5 19 21 16 9 14 9 8 -10 4 18 21 8 9 11 10 6 5 3 10 7 6 6 4 6 8 7 10 8 12 13 11 9 21 17 2 10 7 17 7 13 16 13 10 14 14 13 13 12 10 10
14 16 7 5 8 20 20 16 8 12 4 8 11 10 19 11 8 4 9 10 10 4 9 11 7 6 6 8 8 9 9 12 12 13 12 11 11 30 6 5 1 1 4 4 13 9 8 11 11 10 10 10 8 6
16 13 11 15 7 8 21 16 12 15 13 9 13 7 18 14 12 -1 12 13 12 2 12 7 6 6 5 6 8 9 9 13 11 12 12 12 15 16 23 22 1 -0 -3 7 4 12 11 7 8 8 6 7 0 3
9 8 14 8 4 10 11 12 18 19 6 10 9 10 6 8 4 12 11 13 8 5 2 15 6 4 8 6 8 8 12 10 12 13 11 17 14 18 16 17 27 16 8 1 5 -3 2 4 4 4 6 -1 2 2
6 8 4 13 9 19 19 5 14 16 17 12 11 9 7 8 6 11 23 12 9 4 8 7 6 6 4 7 7 10 11 10 12 9 12 12 16 20 18 15 19 21 17 16 13 6 5 5 8 8 9 10 8 7
8 5 1 11 11 15 22 12 7 10 11 8 7 12 11 10 10 12 14 9 5 7 9 7 7 6 5 7 8 12 11 11 12 11 7 6 8 11 15 17 14 13 17 15 15 15 15 9 8 11 11 9 11 11
-10 4 10 8 14 19 20 15 11 23 18 6 4 12 11 14 20 18 13 5 7 6 10 9 5 6 8 3 9 12 11 12 10 9 13 10 6 4 4 6 15 16 10 13 18 13 13 12 13 12 12 10 7 9
12 13 13 -3 10 14 16 18 16 1 15 10 31 22 14 16 11 9 12 6 8 11 8 4 4 4 7 8 10 11 10 11 11 9 7 7 8 8 7 9 10 14 18 10 20 14 11 10 11 9 7 8 11 10
10 3 12 7 10 13 16 15 10 9 13 11 11 3 19 20 13 6 8 7 8 8 6 4 5 6 5 6 9 9 9 10 12 12 13 14 12 10 14 23 22 25 19 16 20 9 8 5 4 6 14 9 12 10
4 6 6 3 6 11 14 19 12 14 12 15 19 23 12 7 10 4 9 10 9 5 6 6 5 10 10 11 9 8 10 11 10 10 10 9 10 15 19 17 18 26 19 14 20 8 8 4 4 11 17 12 7 6
4 8 7 -4 4 4 9 22 22 11 9 10 5 8 13 10 10 11 11 9 8 9 6 6 6 6 9 10 8 8 14 14 11 9 9 8 12 24 16 10 32 24 17 16 18 13 8 10 8 11 6 6 6 6
-16 -7 -1 -5 10 7 8 19 16 14 10 9 4 5 13 12 12 14 11 8 5 6 5 6 9 9 8 7 7 10 12 11 7 6 8 16 32 17 4 1 4 41 18 9 8 5 10 10 9 5 5 4 3 3
21 14 15 -2 10 11 13 16 12 16 19 11 16 13 15 14 7 20 6 6 4 4 6 10 9 10 9 8 8 12 13 7 6 5 13 21 17 15 5 5 6 9 16 16 10 10 10 7 6 4 2 2 2 3
6 6 12 10 10 15 14 12 16 18 16 13 12 14 13 9 10 11 10 6 8 8 11 11 12 11 7 5 11 13 11 6 9 7 19 10 16 18 5 5 12 18 16 11 10 8 7 4 3 2 1 1 3 3
9 5 19 9 11 12 12 15 19 20 13 14 11 10 7 10 9 7 4 6 7 9 10 10 8 5 9 12 13 8 7 11 10 6 16 10 16 18 8 7 15 11 10 8 7 6 4 2 2 2 1 1 2 3
-3 9 13 11 15 11 11 11 10 16 18 17 11 9 7 5 4 5 7 11 12 10 11 9 7 8 8 10 7 5 7 9 13 7 19 8 12 13 9 11 11 8 7 5 6 5 4 3 2 2 1 1 2 2
1 10 15 16 17 13 7 6 8 7 6 5 6 7 6 5 8 9 10 11 9 9 9 7 5 4 3 5 5 7 9 11 5 12 23 16 4 13 10 8 9 7 5 4 5 5 5 3 2 2 2 1 1 2
7 17 14 15 14 15 12 10 5 8 9 10 10 8 7 8 10 11 10 8 9 10 9 12 8 10 10 11 9 7 9 7 8 17 20 22 2 9 12 10 8 8 6 5 4 5 5 4 3 2 2 2 3 2
21 15 11 12 13 11 10 14 12 8 12 10 9 8 9 10 12 12 10 9 10 8 9 7 11 10 5 6 9 8 5 6 8 15 11 27 10 1 7 12 9 7 6 5 5 4 3 3 3 3 3 4 3 4
17 10 9 8 9 9 8 10 11 11 11 11 10 10 10 9 10 9 10 10 11 10 9 11 6 7 3 9 9 8 7 5 10 11 12 21 14 5 6 12 9 8 6 5 5 4 4 5 5 4 3 3 6 6
16 12 11 12 12 10 9 9 11 10 10 9 11 10 9 11 10 8 8 10 17 12 10 16 9 0 6 9 6 9 5 5 17 11 17 13 11 8 10 12 9 7 5 4 5 6 7 5 4 5 7 7 5 5
16 17 17 12 11 7 11 12 11 12 11 12 10 7 12 8 6 6 9 14 14 14 15 13 9 2 -2 2 1 -3 2 7 15 14 17 8 7 9 13 12 9 6 5 6 6 6 5 6 8 8 6 5 5 5
13 13 12 15 17 17 14 12 11 10 11 10 11 15 11 15 14 17 15 14 17 19 20 25 14 14 10 6 9 5 8 13 11 19 13 6 2 8 13 10 8 6 6 6 8 7 7 7 6 6 6 4 6 8
11 13 14 14 12 12 13 14 17 13 11 10 11 15 14 12 14 25 15 6 13 19 19 15 13 19 15 12 6 19 14 16 11 18 11 4 4 8 11 9 7 9 9 8 6 6 6 6 7 5 6 8 8 8
20 21 19 18 18 17 17 19 19 24 25 16 10 8 8 11 6 11 24 15 8 11 14 15 7 7 10 18 18 16 16 11 16 16 8 3 5 10 10 9 8 7 6 6 5 6 7 6 7 7 8 9 10 8
6 1 5 11 10 10 14 8 8 9 1 -0 14 15 22 19 3 -2 5 9 9 11 15 15 9 8 13 14 5 10 14 16 15 9 5 5 9 10 9 7 7 6 6 6 8 6 7 5 7 10 11 10 7 9
7 7 9 3 6 4 6 5 6 8 9 9 9 9 12 10 9 9 9 8 4 5 14 16 14 13 13 15 13 15 16 11 7 5 6 10 11 10 7 7 6 6 9 6 7 5 6 8 11 10 8 9 8 10
6 11 -0 15 12 6 2 9 7 6 10 8 10 11 11 10 7 8 8 8 13 20 25 23 18 16 16 17 17 13 10 8 6 12 13 10 8 8 6 8 9 6 7 7 5 6 9 11 8 8 10 8 9 5
23 22 28 32 32 32 26 17 14 9 9 15 15 13 13 16 15 18 21 26 26 25 19 16 15 14 13 11 9 8 13 17 14 10 8 8 8 9 7 6 7 7 5 5 7 11 10 8 10 10 8 6 5 8
16 23 18 21 23 20 20 20 19 20 19 19 18 17 18 17 16 13 12 13 13 12 12 12 13 14 14 15 12 10 9 8 9 8 8 7 6 7 7 7 6 5 7 11 12 9 9 10 8 8 4 7 11 20
12 12 11 8 5 6 12 14 17 17 18 18 18 22 22 21 18 17 18 15 15 13 12 12 12 11 10 10 10 9 8 7 7 7 8 9 8 6 7 6 7 11 12 9 8 10 9 8 8 5 9 15 24 28
Height
5387 5394 5400 5405 5410 5417 5421 5427 5434 5443 5452 5460 5467 5475 5481 5489 5498 5504 5511 5517 5524 5530 5537 5542 5547 5552 5555 5557 5560 5561 5562 5562 5562 5562 5562 5561 5561 5563 5564 5564 5564 5564 5565 5565 5565 5566 5569 5570 5571 5573 5573 5572 5574 5574
5381 5389 5396 5401 5407 5413 5418 5423 5431 5438 5449 5458 5466 5472 5480 5489 5495 5502 5509 5514 5520 5529 5535 5540 5544 5548 5551 5553 5556 5556 5558 5558 5558 5557 5558 5558 5558 5560 5561 5562 5562 5563 5562 5562 5563 5562 5564 5565 5567 5569 5570 5571 5571 5573
5376 5384 5392 5399 5404 5409 5415 5421 5428 5437 5445 5455 5462 5470 5479 5486 5493 5500 5507 5512 5519 5525 5533 5538 5542 5545 5547 5551 5551 5553 5554 5554 5554 5554 5554 5554 5554 5556 5557 5559 5559 5559 5559 5559 5559 5559 5560 5562 5563 5565 5566 5567 5568 5569
5372 5380 5388 5396 5401 5407 5413 5419 5426 5434 5442 5450 5459 5468 5476 5483 5491 5499 5506 5511 5518 5525 5530 5536 5539 5542 5545 5547 5548 5549 5550 5551 5551 5550 5550 5550 5551 5552 5553 5555 5556 5557 5557 5557 5558 5558 5559 5560 5561 5563 5564 5565 5566 5566
5369 5377 5385 5392 5399 5405 5411 5417 5424 5430 5439 5448 5457 5465 5473 5482 5490 5497 5503 5508 5515 5523 5527 5532 5535 5539 5541 5543 5544 5546 5546 5547 5547 5546 5546 5546 5546 5546 5547 5549 5551 5553 5554 5555 5556 5557 5558 5559 5559 5559 5560 5561 5562 5562
5367 5375 5383 5390 5397 5403 5409 5416 5422 5428 5435 5445 5454 5462 5471 5479 5487 5494 5500 5507 5513 5519 5526 5529 5533 5536 5538 5540 5541 5542 5543 5543 5543 5543 5542 5542 5542 5542 5542 5543 5545 5547 5549 5551 5552 5553 5554 5555 5556 5556 5556 5557 5558 5558
5367 5375 5382 5388 5395 5401 5407 5414 5420 5427 5433 5442 5451 5460 5468 5477 5484 5492 5500 5506 5510 5517 5522 5526 5529 5532 5535 5537 5538 5539 5539 5540 5540 5540 5540 5540 5539 5539 5539 5540 5541 5542 5544 5546 5548 5549 5551 5552 5553 5553 5554 5554 5554 5554
5367 5375 5382 5388 5393 5400 5405 5413 5419 5426 5433 5441 5449 5458 5466 5474 5483 5489 5495 5501 5507 5513 5519 5523 5527 5530 5532 5533 5535 5536 5536 5536 5537 5537 5538 5537 5537 5536 5536 5537 5537 5538 5539 5541 5543 5545 5547 5548 5549 5550 5551 5551 5552 5552
5367 5374 5382 5388 5393 5398 5405 5412 5418 5425 5433 5440 5449 5456 5464 5471 5479 5486 5492 5499 5505 5513 5516 5520 5523 5526 5528 5530 5533 5533 5533 5534 5534 5535 5535 5535 5534 5534 5534 5534 5534 5534 5536 5537 5539 5541 5543 5545 5546 5547 5548 5548 5548 5547
5366 5374 5381 5387 5393 5398 5404 5411 5418 5426 5432 5440 5447 5455 5461 5469 5476 5483 5490 5496 5503 5508 5512 5516 5519 5523 5526 5528 5529 5531 5531 5531 5531 5532 5531 5531 5531 5530 5530 5529 5529 5529 5530 5533 5535 5537 5539 5541 5542 5544 5544 5544 5544 5543
5365 5374 5381 5387 5393 5399 5404 5411 5417 5424 5431 5438 5445 5454 5462 5469 5474 5481 5487 5494 5500 5505 5509 5513 5516 5519 5522 5525 5526 5527 5527 5528 5528 5529 5528 5528 5527 5526 5525 5523 5523 5523 5525 5528 5531 5534 5536 5538 5539 5540 5540 5540 5540 5540
5366 5374 5381 5388 5394 5399 5404 5409 5417 5424 5431 5439 5447 5454 5461 5466 5472 5479 5485 5491 5497 5502 5507 5510 5514 5517 5520 5522 5523 5524 5525 5525 5525 5525 5525 5524 5523 5522 5520 5519 5518 5518 5520 5524 5527 5530 5533 5535 5536 5536 5536 5537 5538 5538
5367 5375 5382 5388 5394 5400 5405 5409 5415 5422 5430 5438 5444 5451 5457 5463 5470 5478 5484 5491 5496 5501 5505 5508 5512 5514 5517 5520 5521 5522 5522 5523 5523 5523 5522 5521 5520 5519 5519 5518 5516 5516 5518 5521 5524 5528 5530 5532 5533 5534 5534 5535 5535 5535
5368 5375 5381 5388 5395 5401 5406 5410 5416 5423 5430 5437 5443 5449 5455 5462 5471 5479 5484 5489 5494 5497 5501 5505 5508 5512 5514 5516 5518 5519 5520 5521 5520 5521 5520 5518 5516 5517 5518 5518 5517 5516 5518 5521 5524 5526 5528 5530 5530 5531 5532 5532 5532 5530
5368 5374 5381 5390 5396 5402 5407 5411 5417 5423 5429 5436 5443 5449 5457 5466 5473 5477 5482 5486 5491 5495 5499 5502 5506 5509 5511 5513 5515 5516 5517 5517 5518 5518 5518 5516 5516 5517 5518 5518 5518 5518 5519 5521 5523 5525 5526 5527 5528 5529 5529 5528 5526 5524
5367 5375 5383 5391 5397 5401 5407 5412 5418 5424 5430 5436 5444 5450 5459 5466 5472 5477 5480 5484 5488 5492 5497 5501 5503 5506 5509 5511 5512 5513 5514 5514 5516 5517 5516 5515 5515 5516 5517 5517 5518 5518 5519 5521 5522 5523 5524 5525 5526 5526 5524 5523 5521 5518
5372 5379 5385 5392 5397 5403 5408 5413 5419 5425 5431 5437 5444 5451 5458 5465 5470 5475 5479 5482 5485 5490 5494 5497 5500 5503 5506 5508 5509 5509 5511 5512 5513 5514 5514 5514 5514 5514 5516 5516 5517 5518 5519 5520 5521 5522 5522 5523 5522 5521 5519 5517 5514 5510
5374 5381 5387 5393 5398 5403 5409 5414 5420 5426 5433 5439 5444 5450 5456 5462 5467 5471 5475 5479 5483 5487 5491 5494 5498 5501 5504 5505 5505 5507 5508 5509 5510 5511 5511 5511 5512 5513 5513 5514 5515 5516 5517 5518 5519 5519 5519 5518 5517 5515 5512 5509 5505 5501
5377 5382 5386 5391 5397 5403 5410 5416 5421 5427 5433 5438 5444 5449 5454 5459 5464 5468 5472 5476 5480 5484 5487 5490 5494 5498 5500 5500 5501 5503 5505 5506 5507 5506 5506 5508 5509 5510 5510 5511 5512 5513 5514 5515 5515 5515 5514 5513 5511 5508 5505 5501 5496 5491
5375 5381 5386 5392 5399 5404 5410 5416 5421 5427 5432 5437 5442 5447 5451 5456 5461 5465 5469 5473 5477 5480 5483 5487 5491 5493 5494 5495 5497 5499 5501 5502 5502 5502 5502 5503 5505 5506 5507 5507 5508 5509 5510 5510 5509 5508 5507 5505 5503 5500 5496 5492 5486 5480
5375 5381 5387 5393 5399 5405 5410 5415 5420 5426 5430 5435 5439 5444 5449 5453 5457 5462 5465 5469 5473 5477 5480 5484 5486 5488 5489 5491 5492 5494 5496 5497 5498 5498 5498 5499 5500 5501 5502 5503 5503 5504 5504 5504 5503 5501 5499 5497 5495 5491 5487 5481 5475 5469
5378 5384 5389 5394 5399 5405 5410 5415 5420 5424 5429 5433 5437 5442 5446 5450 5453 5457 5462 5465 5469 5471 5474 5477 5479 5482 5484 5486 5488 5490 5491 5492 5493 5493 5494 5494 5496 5497 5497 5497 5497 5497 5497 5497 5495 5494 5491 5489 5486 5481 5476 5470 5464 5457
5379 5384 5389 5394 5400 5404 5410 5413 5418 5422 5427 5432 5435 5439 5443 5446 5450 5453 5457 5461 5463 5465 5467 5470 5473 5476 5479 5481 5483 5485 5486 5487 5487 5488 5488 5489 5490 5491 5491 5491 5491 5491 5490 5489 5488 5486 5483 5480 5475 5470 5465 5459 5452 5444
5381 5386 5391 5395 5400 5404 5409 5413 5417 5422 5425 5429 5432 5436 5439 5443 5446 5449 5453 5455 5457 5459 5461 5464 5467 5470 5474 5476 5478 5480 5481 5482 5482 5482 5483 5484 5485 5486 5485 5485 5485 5484 5484 5482 5480 5477 5474 5469 5465 5460 5454 5447 5439 5431
5385 5389 5393 5397 5401 5406 5409 5413 5416 5420 5423 5427 5430 5433 5436 5439 5442 5445 5448 5450 5451 5453 5455 5458 5461 5465 5468 5470 5472 5474 5475 5475 5476 5477 5477 5478 5479 5480 5479 5479 5478 5477 5475 5474 5471 5467 5463 5459 5454 5448 5441 5434 5427 5418
5387 5392 5396 5399 5403 5407 5410 5414 5416 5419 5422 5425 5428 5431 5433 5435 5438 5442 5445 5447 5448 5449 5451 5454 5457 5459 5462 5464 5466 5467 5468 5469 5470 5471 5472 5473 5473 5473 5472 5472 5471 5470 5467 5465 5461 5457 5453 5448 5442 5436 5429 5421 5413 5404
5393 5396 5400 5403 5406 5409 5412 5414 5416 5419 5421 5424 5427 5429 5431 5434 5437 5440 5441 5442 5443 5445 5447 5449 5452 5454 5456 5458 5459 5460 5461 5463 5464 5465 5466 5467 5467 5466 5466 5465 5463 5461 5458 5455 5451 5447 5442 5436 5430 5423 5416 5408 5399 5390
5399 5402 5405 5408 5410 5413 5415 5417 5419 5421 5423 5425 5427 5428 5430 5433 5436 5436 5437 5439 5440 5442 5444 5445 5447 5449 5450 5451 5453 5454 5455 5457 5458 5459 5460 5460 5460 5459 5458 5456 5454 5452 5449 5445 5441 5436 5431 5425 5418 5411 5403 5394 5385 5376
5406 5408 5410 5411 5412 5414 5416 5417 5418 5420 5421 5423 5425 5426 5428 5430 5431 5432 5433 5435 5436 5437 5439 5440 5441 5443 5444 5445 5447 5448 5450 5451 5453 5454 5454 5453 5452 5451 5450 5448 5445 5442 5439 5435 5430 5425 5419 5412 5405 5397 5389 5381 5371 5361
5408 5409 5410 5409 5410 5412 5413 5415 5416 5418 5419 5421 5422 5424 5425 5426 5427 5428 5429 5430 5430 5431 5432 5433 5435 5437 5439 5441 5442 5443 5445 5446 5446 5447 5446 5446 5445 5443 5441 5439 5436 5433 5429 5424 5419 5413 5407 5399 5392 5384 5376 5367 5357 5347
5406 5406 5407 5406 5407 5409 5411 5412 5414 5415 5417 5418 5419 5421 5422 5422 5423 5424 5424 5424 5425 5427 5429 5430 5432 5434 5435 5436 5437 5438 5439 5439 5439 5439 5439 5438 5437 5435 5432 5430 5426 5422 5418 5413 5407 5401 5394 5387 5379 5371 5363 5354 5344 5333
5406 5406 5406 5407 5408 5409 5410 5411 5413 5414 5415 5416 5417 5418 5419 5420 5420 5421 5422 5423 5424 5425 5427 5428 5429 5430 5431 5432 5432 5433 5433 5433 5433 5432 5431 5430 5428 5426 5423 5420 5416 5411 5406 5401 5395 5389 5382 5374 5367 5358 5349 5339 5329 5318
5407 5408 5409 5410 5411 5412 5413 5414 5414 5415 5416 5416 5417 5417 5418 5419 5420 5420 5421 5421 5422 5423 5424 5425 5425 5426 5427 5427 5427 5427 5427 5427 5426 5425 5423 5421 5419 5416 5413 5409 5405 5400 5395 5389 5383 5376 5369 5361 5353 5345 5335 5325 5315 5305